Weather History for Pensacola NAS, FL

Change the Weather History Date:

Tuesday, June 25, 2013

  Actual Average Record
Temperature  
Mean Temperature 80 °F -  
Max Temperature 88 °F 85 °F 93 °F (2010)
Min Temperature 73 °F 71 °F 68 °F (2001)
Cooling Degree Days 15    
Growing Degree Days 30 (Base 50)    
Moisture  
Dew Point 74 °F    
Average Humidity 82    
Maximum Humidity 100    
Minimum Humidity 63    
Precipitation  
Precipitation 0.00 in - - ()
Sea Level Pressure  
Sea Level Pressure 30.10 in    
Wind  
Wind Speed 2 mph (SSE)    
Max Wind Speed 9 mph    
Max Gust Speed -    
Visibility 10 miles    
Events Rain , Thunderstorm    
Averages and records for this station are not official NWS values.
T = Trace of Precipitation, MM = Missing Value Source: NWS Daily Summary

Daily Weather History Graph

Daily Weather History Graph

Search for Another Location

Airport:

Trip Planner

Search our weather history database for the weather conditions in past years. The results will help you decide how hot, cold, wet, or windy it might be!

Date:

Astronomy

Jun. 25, 2013 Rise Set
Actual Time 5:48 AM CDT 7:55 PM CDT
Civil Twilight 5:21 AM CDT 8:22 PM CDT
Nautical Twilight 4:47 AM CDT 8:56 PM CDT
Astronomical Twilight 4:11 AM CDT 9:32 PM CDT
Moon 9:54 PM CDT (6/25) 8:17 AM CDT (6/25)
Length of Visible Light 15h 01m
Length of Day
14h 06m
Waning Gibbous, 92% of the Moon is Illuminated
Jun 25
Waning Gibbous
Jun 29
Last Quarter
Jul 8
New
Jul 15
First Quarter
Jul 22
Full

Hourly Weather History & Observations

Time (CDT) Temp. Heat Index Dew Point Humidity Pressure Visibility Wind Dir Wind Speed Gust Speed Precip Events Conditions
12:37 AM 75.2 °F - 73.4 °F 94% 30.13 in 10.0 mi Calm Calm - N/A   Mostly Cloudy
12:47 AM 75.2 °F - 73.4 °F 94% 30.12 in 10.0 mi Calm Calm - N/A   Scattered Clouds
12:56 AM 75.9 °F - 73.9 °F 94% 30.12 in 10.0 mi Calm Calm - N/A   Scattered Clouds
1:22 AM 75.2 °F - 73.4 °F 94% 30.11 in 10.0 mi Calm Calm - N/A   Mostly Cloudy
1:35 AM 75.2 °F - 73.4 °F 94% 30.11 in 10.0 mi Calm Calm - N/A   Scattered Clouds
1:56 AM 73.9 °F - 73.0 °F 97% 30.11 in 10.0 mi Calm Calm - N/A   Clear
2:56 AM 73.0 °F - 72.0 °F 96% 30.09 in 10.0 mi Calm Calm - N/A   Clear
3:56 AM 73.0 °F - 72.0 °F 96% 30.09 in 10.0 mi Calm Calm - N/A   Clear
4:56 AM 73.0 °F - 72.0 °F 96% 30.10 in 10.0 mi Calm Calm - N/A   Clear
5:56 AM 75.0 °F - 73.9 °F 96% 30.11 in 10.0 mi Calm Calm - 0.00 in   Mostly Cloudy
6:04 AM 75.2 °F - 73.4 °F 94% 30.10 in 10.0 mi Calm Calm - N/A   Mostly Cloudy
6:21 AM 75.2 °F - 75.2 °F 100% 30.10 in 10.0 mi Calm Calm - N/A   Mostly Cloudy
6:56 AM 77.0 °F - 75.9 °F 96% 30.12 in 10.0 mi Calm Calm - N/A   Mostly Cloudy
7:52 AM 82.4 °F 90.9 °F 77.0 °F 84% 30.13 in 10.0 mi North 3.5 mph - N/A   Mostly Cloudy
7:56 AM 82.9 °F 91.8 °F 77.0 °F 82% 30.14 in 10.0 mi North 4.6 mph - N/A   Mostly Cloudy
8:23 AM 82.4 °F 90.9 °F 77.0 °F 84% 30.14 in 10.0 mi NE 4.6 mph - N/A   Mostly Cloudy
8:37 AM 80.6 °F 87.1 °F 77.0 °F 89% 30.13 in 10.0 mi East 5.8 mph - N/A   Mostly Cloudy
8:56 AM 81.0 °F 87.9 °F 77.0 °F 88% 30.14 in 10.0 mi East 4.6 mph - N/A   Mostly Cloudy
9:12 AM 82.4 °F 88.2 °F 73.4 °F 74% 30.13 in 10.0 mi Calm Calm - N/A   Scattered Clouds
9:56 AM 84.9 °F 93.3 °F 75.0 °F 72% 30.14 in 10.0 mi SE 5.8 mph - N/A Thunderstorm Thunderstorm
10:10 AM 82.4 °F 88.2 °F 73.4 °F 74% 30.13 in 10.0 mi Calm Calm - N/A Thunderstorm Thunderstorm
10:44 AM 82.4 °F 89.5 °F 75.2 °F 79% 30.13 in 10.0 mi ESE 6.9 mph - 0.00 in Rain , Thunderstorm Light Rain
10:51 AM 82.4 °F 89.5 °F 75.2 °F 79% 30.13 in 10.0 mi East 6.9 mph - 0.00 in Rain Light Rain
10:54 AM 82.4 °F 89.5 °F 75.2 °F 79% 30.13 in 10.0 mi East 4.6 mph - 0.00 in   Mostly Cloudy
10:56 AM 82.0 °F 89.4 °F 75.9 °F 82% 30.14 in 10.0 mi East 4.6 mph - 0.00 in   Mostly Cloudy
11:56 AM 87.1 °F 97.3 °F 75.9 °F 69% 30.13 in 10.0 mi Variable 6.9 mph - N/A   Mostly Cloudy
12:56 PM 87.1 °F 94.5 °F 73.0 °F 63% 30.12 in 10.0 mi SE 9.2 mph - N/A   Mostly Cloudy
1:56 PM 87.1 °F 94.5 °F 73.0 °F 63% 30.10 in 10.0 mi SSE 8.1 mph - N/A   Mostly Cloudy
2:56 PM 84.9 °F 91.4 °F 73.0 °F 67% 30.09 in 10.0 mi South 6.9 mph - N/A   Mostly Cloudy
3:56 PM 84.9 °F 91.4 °F 73.0 °F 67% 30.07 in 10.0 mi SSW 6.9 mph - N/A   Mostly Cloudy
4:56 PM 84.0 °F 90.2 °F 73.0 °F 69% 30.06 in 10.0 mi SSW 5.8 mph - N/A   Mostly Cloudy
5:56 PM 84.9 °F 92.1 °F 73.9 °F 69% 30.04 in 10.0 mi SSW 4.6 mph - N/A   Mostly Cloudy
6:56 PM 84.0 °F 90.2 °F 73.0 °F 69% 30.05 in 10.0 mi SSW 8.1 mph - N/A   Mostly Cloudy
7:56 PM 81.0 °F 86.2 °F 73.9 °F 79% 30.05 in 10.0 mi SSW 4.6 mph - N/A   Mostly Cloudy
8:56 PM 81.0 °F 85.8 °F 73.0 °F 77% 30.06 in 10.0 mi South 6.9 mph - N/A   Mostly Cloudy
9:56 PM 81.0 °F 85.8 °F 73.0 °F 77% 30.07 in 10.0 mi South 5.8 mph - N/A   Scattered Clouds
10:56 PM 81.0 °F 85.8 °F 73.0 °F 77% 30.05 in 10.0 mi South 8.1 mph - N/A   Scattered Clouds
11:56 PM 80.1 °F 84.2 °F 73.0 °F 79% 30.05 in 10.0 mi South 6.9 mph - N/A   Partly Cloudy